Location: Central Falls
(41.8900°N, 71.3929°W)
Time: 12:49:47
(UTC+00:00)

A-11 Canister half - Pass Details

Date: 14 December 2023
Orbit: 1512 x 1687 km, 47.2° (Epoch: 20 February)

Event Time Altitude Azimuth Distance (km) Brightness Sun altitude
Rises 02:19:05 0° 230° (SW) 4,659 11.8 -55.3°
Enters shadow 02:21:17 - 229° (SW) 3,952 11.3 -55.7°
Reaches altitude 10° 02:22:05 10° 228° (SW) 3,692 - -55.8°
Maximum altitude 02:31:21 72° 147° (SSE) 1,633 - -57.4°
Drops below altitude 10° 02:40:59 10° 65° (ENE) 3,828 - -59.0°
Sets 02:44:09 0° 64° (ENE) 4,840 - -59.5°
